Temperature
16 14 14 15 16 18 19 20 20 19 20 21 21 20 20 22 21 21 22 22 22 22 24 23 23 23 23 22 22 22 21 20 20 19 19 18 17 17 17 17 16 16 16 16
15 15 16 17 17 18 19 19 19 19 19 21 20 20 20 20 21 22 22 23 22 23 22 22 23 23 23 22 22 21 21 20 20 19 19 18 17 17 17 16 16 16 16 16
16 17 17 17 18 18 18 19 19 19 18 19 20 19 19 20 21 22 22 23 23 23 23 23 23 23 22 22 22 21 20 20 19 19 18 18 17 16 16 15 15 15 15 15
16 17 18 18 18 18 18 18 19 19 19 17 19 18 19 19 18 19 20 21 22 23 23 23 23 23 22 22 21 20 20 19 19 19 18 18 17 16 15 14 14 14 14 13
17 17 18 18 18 18 18 19 19 19 18 17 17 17 17 17 19 18 18 18 19 21 22 22 22 22 22 21 20 19 19 18 18 18 18 17 17 15 14 14 13 13 13 13
18 18 18 18 19 19 19 19 17 14 15 16 17 16 17 16 17 17 17 16 17 19 20 21 20 20 20 19 19 18 18 17 17 17 17 16 15 15 14 13 13 12 12 12
19 19 19 20 20 20 19 17 15 16 15 15 17 17 16 17 17 16 16 15 16 17 18 18 17 17 17 17 17 17 17 16 16 16 15 15 14 14 13 13 12 12 12 11
17 17 18 19 19 18 17 16 15 16 16 16 17 16 16 17 17 16 15 15 15 15 16 16 15 16 16 16 16 16 16 16 16 15 15 14 13 13 12 12 11 11 11 10
16 17 19 19 19 18 17 15 16 15 16 16 16 17 17 17 17 16 15 14 14 15 15 15 14 15 15 15 15 15 16 15 15 14 14 13 13 12 12 11 11 10 10 9
16 17 19 20 19 19 18 15 13 14 15 16 17 17 16 16 16 15 14 14 14 14 14 14 14 14 14 15 15 14 14 14 14 13 13 13 12 11 11 10 10 9 9 8
16 17 18 19 20 19 17 17 15 13 14 15 16 16 15 15 15 15 13 13 13 13 13 13 13 14 14 14 14 14 13 13 13 12 12 11 10 10 10 9 9 8 8 7
15 15 16 18 19 19 18 17 14 16 15 14 15 14 14 14 15 14 12 12 12 13 13 13 13 13 13 13 13 13 12 12 12 11 10 10 9 9 9 8 8 7 7 6
14 14 16 17 17 17 18 17 15 13 13 13 14 14 15 14 13 12 11 11 12 12 13 13 13 13 13 12 12 12 11 11 10 10 9 9 8 8 8 7 7 6 6 6
14 13 14 15 16 16 17 17 16 15 14 14 14 14 14 14 13 12 11 11 11 12 12 12 12 12 12 11 11 10 10 9 9 9 8 8 7 7 6 6 6 6 5 5
13 13 14 15 16 16 16 16 16 15 15 14 14 14 14 13 12 11 10 11 11 10 10 11 11 10 10 10 9 9 9 8 8 8 7 7 6 6 6 5 5 5 5 5
11 13 14 14 15 15 15 14 15 15 15 14 13 13 13 12 12 11 10 10 10 10 10 10 10 9 9 9 9 8 8 7 7 7 6 6 5 5 5 5 5 4 4 4
10 12 12 12 13 14 13 13 13 13 13 14 14 13 12 12 11 10 10 10 10 10 9 9 9 9 9 8 8 8 7 7 6 6 5 5 5 5 4 4 4 4 4 3
10 10 10 11 12 12 12 13 13 12 12 12 12 11 11 10 9 9 10 10 10 10 9 9 8 8 8 7 7 7 6 6 5 5 5 5 4 4 4 4 3 3 3 2
9 10 10 10 12 12 13 13 12 12 11 11 11 10 9 9 9 8 9 9 9 9 8 8 7 7 7 6 6 6 5 5 5 4 4 4 4 4 3 3 3 2 1 1
8 8 9 10 11 11 12 12 12 12 11 11 10 9 9 9 9 8 7 8 8 8 7 7 6 6 5 5 5 5 4 4 4 4 4 4 4 3 3 2 2 1 1 1
8 8 8 9 10 10 11 11 12 11 10 11 10 10 9 9 8 7 6 7 7 6 6 5 5 5 4 4 4 4 4 4 4 4 4 3 3 3 2 1 1 1 0 0
8 8 8 8 9 10 10 11 11 10 10 11 11 10 9 8 6 6 6 6 5 5 4 4 4 4 4 4 4 4 4 4 4 4 3 3 3 2 1 1 1 0 0 0
7 7 7 8 8 9 9 9 10 11 11 11 11 11 10 7 6 5 5 5 4 4 4 4 4 4 4 4 4 4 4 4 4 3 3 3 2 2 1 1 0 0 0 -0
7 7 7 8 8 9 9 10 10 11 11 11 11 10 9 8 6 5 5 4 4 4 4 4 4 4 4 4 4 4 4 4 4 3 3 2 2 2 1 1 1 0 -0 -1
7 7 7 7 8 8 9 9 9 10 10 10 10 9 8 7 6 5 4 4 4 4 4 4 4 4 4 4 4 4 4 4 4 3 3 2 2 2 1 1 1 0 -0 -1
5 6 6 6 7 6 7 8 8 9 9 9 8 8 7 6 5 5 4 4 4 4 4 4 4 4 4 4 4 4 4 4 3 3 3 2 2 2 2 1 1 1 0 -1
Wind_Speed
6 5 6 9 10 7 4 3 3 6 4 2 6 9 10 4 6 10 11 13 16 22 21 12 12 12 13 14 14 14 13 10 10 7 6 5 4 3 4 5 10 13 15 15
5 4 10 9 7 5 4 3 4 7 5 2 6 9 10 6 6 10 12 15 18 19 13 12 14 14 15 15 14 13 12 11 10 7 5 5 6 5 4 5 10 14 15 15
8 7 7 7 6 7 5 5 5 6 7 6 4 9 9 6 2 5 7 10 11 15 15 15 14 13 11 13 14 12 12 11 10 10 8 7 6 5 4 5 6 9 13 14
7 7 5 6 7 8 6 7 6 3 2 5 2 4 9 7 8 5 6 7 9 11 12 13 12 10 11 10 10 11 12 11 11 11 11 9 5 4 4 5 5 7 11 12
8 7 8 7 8 9 8 4 6 4 4 3 2 3 9 7 8 9 9 10 11 9 8 9 8 8 7 8 10 11 13 13 11 10 11 10 9 7 8 7 8 7 7 9
7 5 8 10 8 8 5 5 6 5 5 2 6 6 7 4 6 10 11 13 11 7 2 3 7 10 10 11 12 13 15 13 11 11 10 10 12 13 12 10 8 6 5 6
5 5 4 5 3 2 5 5 4 4 2 7 3 4 8 3 5 7 10 11 9 6 8 11 12 12 12 12 12 13 14 13 10 11 10 10 12 12 11 10 8 8 6 5
7 8 7 8 9 8 7 11 8 6 6 6 2 6 5 2 4 7 8 9 10 11 11 13 12 12 12 12 11 11 12 12 10 10 10 10 10 8 8 9 8 8 6 6
8 8 7 9 9 12 8 8 9 7 4 3 5 4 1 2 5 8 9 10 11 11 12 13 13 13 13 12 11 10 11 11 11 11 12 11 9 9 9 8 7 7 7 6
8 6 5 3 5 3 7 9 7 8 8 6 5 4 4 1 2 5 8 9 10 11 12 13 13 13 13 12 13 13 12 12 12 11 10 9 9 8 8 9 8 8 7 5
3 6 5 2 2 4 5 5 5 5 6 8 5 5 2 3 3 5 7 8 9 11 11 12 12 12 13 13 13 13 12 13 12 11 10 10 9 9 10 9 9 8 7 7
4 3 3 4 2 1 5 5 7 6 5 5 6 4 4 2 6 8 8 9 9 10 10 11 12 12 12 12 12 12 11 12 11 10 11 11 10 11 11 10 9 9 9 7
3 4 2 4 5 7 5 3 4 5 5 4 4 2 3 8 9 9 9 8 8 9 9 10 10 10 11 11 11 11 11 11 10 11 12 11 11 12 11 10 10 9 8 7
3 5 4 3 2 3 4 5 2 5 4 3 2 5 4 6 7 7 8 7 7 7 8 8 9 9 9 9 9 11 11 10 11 12 12 12 11 11 10 9 8 7 7 7
5 4 4 4 6 6 7 8 6 5 4 5 5 5 5 5 5 5 5 6 7 7 7 8 8 8 8 8 9 10 11 10 11 12 13 11 10 9 9 8 7 7 7 7
6 3 3 4 8 8 7 12 9 4 3 6 8 4 5 8 7 6 5 5 6 6 6 7 7 8 8 8 9 10 11 10 11 12 11 10 9 8 8 7 7 8 7 7
5 3 3 1 3 5 5 6 5 4 3 1 4 5 9 7 7 5 3 4 5 5 6 6 6 6 7 7 9 10 10 10 11 11 9 8 8 7 7 7 7 7 6 5
0 2 2 2 3 5 6 0 3 5 5 4 7 8 9 10 8 7 6 3 5 6 6 6 7 7 7 8 9 9 9 9 9 8 7 6 7 7 7 7 6 5 4 4
1 4 3 2 2 1 1 1 1 2 3 4 6 9 8 9 6 5 7 5 5 5 6 6 7 7 8 8 8 9 9 8 7 6 6 5 6 7 6 6 5 3 3 4
6 4 4 3 3 4 2 4 2 5 1 2 4 7 6 4 2 1 4 7 8 8 7 7 8 8 8 7 7 8 7 7 6 6 5 6 6 6 6 5 4 3 3 4
6 6 4 2 1 1 4 6 2 1 5 2 5 6 6 3 3 6 7 7 8 9 8 8 8 8 7 6 6 7 6 6 5 6 7 7 6 6 5 4 3 4 4 4
1 2 2 2 1 2 6 5 1 3 1 4 5 5 6 8 9 8 8 8 9 9 9 8 8 7 6 6 6 6 5 4 5 7 7 7 5 4 4 5 4 3 3 3
1 3 3 3 4 4 4 3 3 1 3 3 4 6 11 10 9 8 8 8 8 9 8 7 7 7 5 4 4 4 3 5 7 7 6 5 5 4 3 3 3 2 2 2
3 1 2 1 3 3 4 4 5 4 3 3 5 8 9 9 10 10 9 9 8 8 7 6 6 6 4 3 2 3 4 6 7 7 5 4 4 3 2 1 1 1 1 0
4 2 1 2 3 3 3 5 5 5 6 7 7 7 9 12 12 11 10 9 8 7 6 5 5 4 3 3 3 3 5 6 6 6 4 3 2 2 1 1 2 2 2 3
4 4 3 4 3 2 4 4 3 2 3 6 8 8 9 10 11 11 9 8 7 6 5 5 4 4 4 4 4 3 3 5 6 5 4 3 2 2 2 1 2 3 3 4
Wind_Direction
132 113 184 192 184 191 195 190 271 276 290 326 296 291 291 279 236 239 236 224 217 222 224 208 202 201 194 191 190 190 189 177 166 165 160 140 110 78 63 75 98 105 106 106
89 216 213 192 181 175 194 234 284 298 337 315 302 296 288 265 229 233 238 234 228 230 224 209 206 202 200 196 190 186 184 173 167 163 140 116 110 96 80 83 89 100 106 107
170 220 186 156 156 175 193 198 230 262 332 344 312 313 304 302 300 281 268 258 245 231 222 215 211 209 199 196 189 182 170 161 148 134 115 105 90 83 88 94 97 100 105 104
202 231 157 162 187 172 233 223 207 222 351 299 35 298 295 309 321 308 314 308 282 254 230 217 208 201 194 188 164 156 147 138 132 130 128 129 130 129 123 119 112 106 104 107
219 196 177 195 205 174 211 204 192 204 192 272 287 183 281 330 318 318 330 333 314 291 252 224 201 177 152 135 132 129 124 122 121 120 125 122 119 120 123 122 116 106 102 109
222 208 184 204 216 191 166 77 49 52 92 239 234 174 268 298 307 321 336 342 332 328 9 93 95 102 102 106 113 118 118 114 113 111 113 123 133 139 140 136 126 114 106 104
261 262 225 173 139 139 136 113 18 352 30 239 237 184 243 306 341 343 345 352 2 34 73 87 91 96 100 103 108 113 115 114 116 116 121 134 141 142 141 136 131 131 125 120
210 263 228 194 192 200 179 151 166 198 213 253 220 219 242 31 24 36 34 31 45 63 75 81 83 87 89 89 93 101 108 113 115 117 121 124 127 126 128 134 140 138 133 128
192 239 256 216 198 174 164 190 184 157 175 211 260 253 275 84 47 49 49 51 55 64 75 78 76 75 74 75 75 85 96 100 101 107 109 112 115 121 128 128 126 123 120 121
180 233 283 256 116 146 162 153 113 141 158 211 257 235 219 212 49 57 56 58 59 64 70 73 73 74 74 73 74 74 81 88 91 93 98 104 102 109 115 117 114 110 106 103
160 197 285 15 145 176 122 133 137 141 163 167 217 253 268 243 160 101 76 62 61 65 68 72 75 76 78 77 76 76 78 83 84 86 88 90 90 95 97 100 98 96 92 93
14 140 246 252 290 36 134 157 147 156 203 183 179 229 337 137 115 102 86 71 66 70 75 78 81 82 82 83 83 83 82 84 85 88 89 88 89 88 88 86 84 86 84 83
356 70 50 15 3 9 47 62 121 119 112 138 155 197 65 97 90 87 85 78 75 79 81 82 82 85 87 88 89 88 87 88 88 89 88 83 81 83 85 85 85 87 90 90
92 67 96 139 270 318 12 16 70 103 111 132 155 143 124 100 93 84 82 81 78 76 80 83 80 79 82 84 88 90 86 88 90 90 90 87 86 88 90 91 90 89 90 89
47 70 54 46 28 36 37 18 32 74 130 136 149 142 138 116 102 92 91 88 80 75 73 77 80 79 80 81 84 88 89 90 94 94 92 93 93 94 93 90 84 80 76 79
25 43 32 27 29 31 20 7 8 37 85 121 126 123 117 111 101 92 90 91 84 79 78 83 87 91 93 96 98 96 94 95 97 97 97 97 95 92 88 86 83 79 73 69
357 36 56 31 48 38 337 336 342 353 356 140 163 150 133 114 98 84 84 107 111 106 97 95 94 93 92 94 101 101 100 98 98 99 99 97 94 90 85 89 84 78 71 66
278 75 97 112 115 190 230 30 77 81 34 51 102 109 112 108 92 58 32 82 112 114 113 112 109 102 93 92 92 94 94 94 96 96 98 99 100 98 91 83 78 71 65 62
134 137 108 112 147 168 182 321 304 101 30 20 107 108 103 107 90 54 33 49 88 103 112 111 107 103 96 90 92 94 91 91 94 97 98 100 103 100 93 84 75 65 68 58
38 67 105 115 151 212 231 334 345 102 37 310 130 132 130 116 121 138 66 75 90 97 103 104 98 92 87 78 83 90 89 89 91 94 94 97 98 98 94 87 74 64 73 65
4 17 51 94 159 294 322 316 354 181 230 188 146 150 147 127 123 115 104 94 100 102 101 99 94 87 81 76 82 87 86 84 88 97 96 92 92 96 96 82 72 78 75 60
9 22 23 50 65 271 332 354 186 218 118 99 118 127 122 113 111 113 114 111 109 105 99 98 94 84 72 68 79 86 86 88 99 101 98 95 95 97 102 98 87 76 73 55
204 192 198 196 221 268 311 335 357 71 89 100 118 122 129 130 130 124 119 114 107 103 97 93 92 81 63 61 89 112 122 119 114 108 107 107 101 96 110 121 119 89 66 51
305 33 141 289 287 315 344 7 17 26 54 82 111 127 131 131 130 125 120 115 109 102 96 89 82 76 55 49 98 140 142 133 128 128 131 129 124 122 120 132 150 152 159 55
268 343 59 291 298 335 358 17 9 29 67 90 99 114 127 130 130 128 125 122 117 106 92 82 80 75 67 74 87 110 135 139 141 146 155 158 163 175 196 220 225 219 225 211
227 186 174 231 256 247 284 334 350 31 94 119 115 109 119 128 130 128 126 122 116 107 96 90 82 85 79 78 75 75 119 144 148 158 177 192 201 215 221 242 291 275 256 265
Height
1485 1492 1497 1496 1495 1496 1496 1497 1499 1496 1490 1490 1490 1489 1482 1479 1479 1478 1479 1479 1480 1479 1479 1484 1488 1491 1493 1496 1500 1505 1509 1513 1517 1519 1521 1525 1528 1531 1534 1535 1536 1538 1541 1544
1490 1493 1488 1487 1490 1493 1495 1498 1499 1495 1489 1488 1489 1487 1478 1475 1475 1474 1474 1473 1473 1474 1477 1480 1482 1485 1488 1491 1495 1500 1505 1510 1513 1516 1518 1521 1524 1527 1529 1531 1533 1535 1537 1540
1487 1484 1481 1486 1490 1495 1497 1499 1498 1497 1493 1490 1491 1492 1481 1472 1473 1472 1472 1470 1470 1470 1471 1474 1477 1480 1484 1487 1490 1495 1500 1505 1510 1513 1516 1517 1519 1521 1524 1527 1530 1531 1534 1536
1482 1478 1480 1484 1487 1491 1498 1491 1493 1494 1500 1506 1498 1510 1489 1477 1475 1471 1470 1469 1467 1466 1466 1468 1472 1476 1479 1482 1487 1492 1496 1501 1506 1509 1511 1514 1516 1517 1520 1524 1527 1529 1532 1534
1478 1475 1478 1482 1483 1485 1488 1486 1489 1492 1497 1505 1502 1509 1498 1483 1478 1472 1470 1469 1466 1463 1463 1465 1468 1472 1476 1480 1484 1488 1493 1498 1502 1506 1509 1512 1513 1517 1519 1523 1526 1528 1530 1533
1471 1469 1471 1473 1473 1477 1481 1487 1494 1502 1507 1514 1502 1509 1503 1490 1483 1477 1473 1470 1466 1462 1461 1463 1466 1470 1474 1478 1482 1486 1490 1496 1501 1505 1509 1511 1512 1515 1518 1521 1524 1527 1530 1532
1473 1469 1467 1468 1473 1475 1482 1497 1515 1512 1521 1516 1496 1500 1499 1483 1481 1479 1477 1472 1467 1464 1463 1465 1467 1471 1475 1479 1483 1487 1491 1496 1501 1504 1507 1510 1512 1515 1519 1521 1524 1527 1529 1532
1481 1481 1467 1464 1469 1477 1482 1491 1511 1518 1517 1510 1497 1501 1491 1481 1481 1480 1479 1475 1471 1468 1469 1470 1473 1475 1479 1483 1486 1490 1493 1497 1500 1503 1505 1509 1513 1516 1519 1522 1525 1527 1530 1532
1478 1476 1459 1457 1457 1465 1479 1485 1482 1500 1504 1508 1503 1493 1486 1481 1480 1481 1480 1478 1476 1475 1475 1476 1478 1481 1484 1487 1490 1493 1496 1498 1501 1504 1507 1511 1514 1516 1519 1522 1525 1527 1529 1531
1467 1472 1460 1454 1456 1460 1464 1473 1490 1500 1512 1512 1499 1494 1494 1485 1483 1482 1482 1481 1480 1480 1481 1482 1483 1485 1488 1491 1493 1496 1498 1500 1503 1506 1508 1512 1515 1518 1521 1523 1526 1527 1530 1532
1463 1469 1464 1458 1460 1462 1468 1474 1480 1492 1493 1504 1508 1502 1487 1485 1483 1484 1485 1484 1484 1484 1485 1486 1488 1489 1492 1494 1496 1499 1501 1503 1505 1508 1511 1514 1517 1520 1522 1525 1527 1529 1531 1532
1465 1470 1472 1464 1456 1455 1459 1466 1477 1486 1491 1492 1497 1501 1484 1482 1483 1485 1487 1488 1488 1488 1489 1490 1491 1493 1495 1497 1499 1501 1504 1506 1508 1511 1513 1516 1519 1521 1523 1526 1528 1530 1532 1533
1467 1473 1477 1474 1471 1464 1463 1465 1470 1478 1488 1495 1497 1497 1484 1483 1486 1488 1490 1491 1492 1492 1493 1494 1495 1496 1498 1500 1501 1503 1505 1508 1510 1513 1515 1518 1520 1522 1525 1527 1529 1531 1532 1533
1467 1476 1482 1486 1482 1473 1470 1468 1468 1474 1487 1491 1489 1490 1486 1486 1489 1491 1493 1494 1495 1496 1497 1498 1499 1500 1501 1503 1504 1505 1507 1510 1512 1515 1517 1519 1522 1524 1527 1528 1530 1531 1532 1532
1471 1479 1478 1477 1474 1472 1474 1474 1470 1473 1477 1484 1487 1487 1487 1488 1491 1494 1496 1497 1498 1499 1500 1501 1502 1503 1505 1506 1508 1508 1510 1512 1515 1517 1519 1521 1524 1526 1528 1529 1530 1531 1531 1531
1479 1481 1479 1480 1476 1476 1479 1478 1476 1475 1476 1480 1482 1487 1486 1489 1492 1496 1498 1499 1501 1502 1503 1504 1505 1507 1508 1509 1510 1511 1512 1515 1517 1519 1521 1523 1526 1528 1529 1529 1530 1530 1531 1530
1486 1485 1487 1489 1482 1483 1490 1486 1484 1483 1481 1479 1482 1484 1485 1490 1493 1496 1499 1500 1501 1504 1505 1507 1508 1509 1510 1511 1512 1513 1515 1517 1519 1521 1523 1525 1527 1528 1529 1529 1530 1530 1530 1529
1487 1489 1494 1493 1491 1500 1491 1483 1484 1485 1485 1481 1482 1485 1487 1491 1495 1498 1500 1502 1503 1504 1506 1508 1509 1510 1512 1513 1515 1516 1517 1519 1521 1523 1525 1527 1528 1529 1529 1530 1530 1530 1529 1527
1487 1489 1494 1498 1496 1493 1489 1486 1486 1487 1489 1487 1486 1489 1492 1494 1497 1501 1502 1503 1505 1506 1508 1510 1511 1512 1514 1515 1517 1518 1520 1521 1523 1525 1527 1528 1529 1530 1530 1530 1530 1529 1528 1526
1489 1491 1497 1498 1497 1500 1493 1487 1485 1488 1494 1490 1489 1491 1494 1496 1501 1504 1504 1505 1506 1508 1509 1511 1513 1514 1516 1518 1519 1521 1522 1524 1526 1528 1529 1530 1531 1531 1531 1530 1530 1528 1527 1526
1499 1500 1502 1501 1500 1497 1492 1489 1488 1497 1496 1490 1491 1493 1496 1498 1502 1504 1505 1506 1508 1509 1511 1513 1515 1517 1518 1520 1522 1523 1525 1527 1529 1531 1532 1532 1532 1532 1531 1531 1530 1528 1527 1526
1504 1505 1504 1505 1503 1503 1493 1490 1493 1493 1490 1491 1493 1495 1498 1500 1502 1504 1506 1508 1510 1512 1514 1516 1517 1519 1521 1523 1524 1526 1528 1530 1532 1533 1533 1534 1533 1533 1532 1531 1530 1529 1528 1526
1504 1505 1504 1505 1506 1499 1495 1494 1493 1493 1493 1495 1496 1497 1499 1501 1504 1506 1508 1510 1512 1514 1516 1519 1520 1522 1524 1526 1528 1530 1531 1533 1534 1534 1535 1535 1534 1534 1533 1532 1531 1529 1528 1526
1503 1501 1502 1502 1500 1498 1496 1496 1495 1495 1496 1497 1498 1499 1500 1502 1504 1507 1510 1512 1515 1517 1520 1522 1524 1526 1528 1530 1531 1532 1534 1534 1535 1536 1536 1536 1535 1534 1533 1532 1531 1529 1528 1525
1503 1501 1502 1501 1500 1498 1498 1497 1497 1497 1497 1498 1499 1500 1501 1503 1505 1508 1511 1514 1517 1520 1523 1526 1528 1529 1531 1532 1534 1534 1535 1535 1536 1536 1536 1536 1536 1535 1534 1532 1531 1529 1527 1525
1501 1501 1502 1502 1500 1500 1498 1497 1497 1497 1497 1498 1499 1500 1503 1505 1507 1510 1513 1517 1521 1524 1527 1529 1531 1532 1534 1535 1535 1535 1535 1536 1536 1536 1536 1536 1536 1535 1533 1532 1531 1529 1527 1525